Change the Weather History Date:

Friday, December 7, 2012

  Actual Average Record
Temperature  
Mean Temperature 28 °F -  
Max Temperature 38 °F - - ()
Min Temperature 18 °F - - ()
Degree Days  
Heating Degree Days 37    
Moisture  
Dew Point 23 °F    
Average Humidity 86    
Maximum Humidity 97    
Minimum Humidity 54    
Precipitation  
Precipitation 0.30 in - - ()
Sea Level Pressure  
Sea Level Pressure 30.36 in    
Wind  
Wind Speed 2 mph ()    
Max Wind Speed 5 mph    
Max Gust Speed -    
T = Trace of Precipitation, MM = Missing Value Source: Averaged Metar Reports

Daily Weather History Graph

Daily Weather History Graph

Search for Another Location

Airport or City:

Trip Planner

Search our weather history database for the weather conditions in past years. The results will help you decide how hot, cold, wet, or windy it might be!

Date:

Astronomy

Dec. 07, 2012 Rise Set
Actual Time 7:43 AM AST 4:41 PM AST
Civil Twilight 7:10 AM AST 5:14 PM AST
Nautical Twilight 6:34 AM AST 5:50 PM AST
Astronomical Twilight 5:58 AM AST 6:26 PM AST
Moon 12:45 AM AST (12/7) 12:48 PM AST (12/7)
Length of Visible Light 10h 03m
Length of Day
8h 57m
Last Quarter, 39% of the Moon is Illuminated
Dec 7
Last Quarter
Dec 13
New
Dec 20
First Quarter
Dec 28
Full
Jan 4
Last Quarter

Hourly Weather History & Observations

Time (AST) Temp. Windchill Dew Point Humidity Pressure Visibility Wind Dir Wind Speed Gust Speed Precip Events Conditions
12:00 AM 20.7 °F 15.8 °F 19.4 °F 95% 30.36 in - North 3.5 mph - N/A   Unknown
1:00 AM 19.9 °F 14.9 °F 18.5 °F 94% 30.38 in - NNW 3.5 mph - N/A   Unknown
2:00 AM 20 °F - 19 °F 93% 30.39 in - North 1.2 mph - -  
2:00 AM 19.8 °F - 18.9 °F 96% 30.39 in - North 1.2 mph - N/A   Unknown
3:00 AM 19.8 °F - 18.7 °F 96% 30.40 in - NW 1.2 mph - N/A   Unknown
4:00 AM 20.7 °F - 19.4 °F 95% 30.40 in - NNW 1.2 mph - N/A   Unknown
5:00 AM 19.4 °F - 18.3 °F 96% 30.39 in - North 1.2 mph - N/A   Unknown
6:00 AM 19.6 °F - 18.5 °F 96% 30.40 in - NNW 2.3 mph - N/A   Unknown
7:00 AM 19.2 °F - 18.5 °F 97% 30.40 in - NNW 2.3 mph - N/A   Unknown
8:00 AM 19 °F - 18 °F 94% 30.40 in - North 2.3 mph - -  
8:00 AM 18.7 °F - 18.0 °F 97% 30.40 in - North 2.3 mph - N/A   Unknown
9:00 AM 23.0 °F - 20.1 °F 89% 30.41 in - NW 1.2 mph - N/A   Unknown
10:00 AM 27.7 °F - 23.4 °F 84% 30.40 in - WNW 1.2 mph - N/A   Unknown
11:00 AM 30.6 °F - 25.9 °F 83% 30.41 in - Calm Calm - N/A   Unknown
12:00 PM 31.3 °F 26.6 °F 25.5 °F 79% 30.37 in - NW 4.6 mph - N/A   Unknown
1:00 PM 34.5 °F 31.6 °F 27.3 °F 75% 30.34 in - West 3.5 mph - N/A   Unknown
2:00 PM 37 °F - 26 °F 54% 30.32 in - WSW 3.5 mph - -  
2:00 PM 36.7 °F 34.1 °F 26.2 °F 66% 30.32 in - WSW 3.5 mph - N/A   Unknown
3:00 PM 38.5 °F 36.1 °F 25.7 °F 60% 30.32 in - West 3.5 mph - N/A   Unknown
4:00 PM 35.6 °F 32.8 °F 27.1 °F 71% 30.33 in - West 3.5 mph - N/A   Unknown
5:00 PM 31.3 °F - 27.7 °F 87% 30.33 in - West 2.3 mph - N/A   Unknown
6:00 PM 31.1 °F 26.4 °F 27.7 °F 87% 30.33 in - West 4.6 mph - N/A   Unknown
7:00 PM 31.1 °F 26.4 °F 27.9 °F 88% 30.32 in - SW 4.6 mph - N/A   Unknown
8:00 PM 32 °F - 29 °F 84% 30.31 in - SSW 4.6 mph - -  
10:00 PM 31.5 °F 26.8 °F 30.4 °F 96% 30.29 in - SSW 4.6 mph - N/A   Unknown
11:00 PM 33.3 °F 30.2 °F 30.7 °F 90% 30.28 in - SW 3.5 mph - N/A   Unknown